This is the latest recevied weather packets stored in our database for station/object DG2MCM-11. If no packets are shown the sender has not sent any weather packets the latest 10 day(s).
| Time | Temp. | Humidity | Pressure | Rain* | Wind** | Luminosity | Snow |
|---|---|---|---|---|---|---|---|
| 1777981120 | 19.44° C | 55% | 1006.5 hPa | 0 mm | - | - | - |
| 1777980518 | 19.44° C | 56% | 1006.5 hPa | 0 mm | - | - | - |
| 1777979916 | 19.44° C | 56% | 1006.6 hPa | 0 mm | - | - | - |
| 1777979314 | 20° C | 54% | 1006.6 hPa | 0 mm | - | - | - |
| 1777978712 | 19.44° C | 51% | 1006.7 hPa | 0 mm | - | - | - |
| 1777978110 | 20° C | 48% | 1006.5 hPa | 0 mm | - | - | - |
| 1777977509 | 20.56° C | 48% | 1006.3 hPa | 0 mm | - | - | - |
| 1777976907 | 21.67° C | 47% | 1006 hPa | 0 mm | - | - | - |
| 1777976305 | 23.89° C | 41% | 1005.4 hPa | 0 mm | - | - | - |
| 1777975704 | 24.44° C | 39% | 1005.3 hPa | 0 mm | - | - | - |
| 1777975102 | 22.78° C | 44% | 1005.7 hPa | 0 mm | - | - | - |
| 1777974499 | 21.11° C | 48% | 1006.2 hPa | 0 mm | - | - | - |
| 1777973898 | 19.44° C | 52% | 1006.8 hPa | 0 mm | - | - | - |
| 1777972093 | 20.56° C | 50% | 1006.7 hPa | 0 mm | - | - | - |
| 1777970290 | 17.78° C | 54% | 1007.6 hPa | 0 mm | - | - | - |
| 1777969087 | 20.56° C | 49% | 1007.1 hPa | 0 mm | - | - | - |
| 1777968485 | 15.56° C | 60% | 1008.5 hPa | 0 mm | - | - | - |
| 1777967883 | 15.56° C | 60% | 1008.7 hPa | 0 mm | - | - | - |
| 1777966680 | 16.11° C | 56% | 1008.8 hPa | 0 mm | - | - | - |
| 1777966079 | 15.56° C | 58% | 1008.8 hPa | 0 mm | - | - | - |
| 1777965477 | 14.44° C | 61% | 1009.2 hPa | 0 mm | - | - | - |
| 1777964876 | 15° C | 59% | 1009.2 hPa | 0 mm | - | - | - |
| 1777964274 | 12.78° C | 70% | 1009.9 hPa | 0 mm | - | - | - |
| 1777963672 | 13.89° C | 64% | 1009.7 hPa | 0 mm | - | - | - |
| 1777963070 | 11.67° C | 71% | 1010.4 hPa | 0 mm | - | - | - |
* Rain latest hour (hover to see other rain measurements)
** Current wind speed in m/s (hover to see current wind gust speed)